CZ-4C DEB (44208 NORAD) Tracking and Keplerian Element Data

This shows tracking and keplerian element data for the satellite.

Feedback or suggestion? Click here.




ElementValue
Catalog44208
NameCZ-4C DEB
Epoch Orbit394
Epoch Day145.96593181
Epoch Year2019
RAAN153.1458
Inclination97.4527
Eccentricity0.0012478
Argument of Perigee169.8742
Mean Anonmoly190.2745
Mean Motion15.18215611
Decay Rate1.236E-05
L11 44208U 19024B 19145.96593181 .00001236 00000-0 63648-4 0 9999
L22 44208 97.4527 153.1458 0012478 169.8742 190.2745 15.18215611 3945

Live tracking and technical data element details for CZ-4C DEB (NORAD 44208). CZ-4C DEB can be tracked NOW for your location showing map with azimuth and elevation plus other details from your city location.

Track the satellite on the map from your city or location and see movement details for azimuth, elevation, latitude, longitude, range, height, and movement on the map or in text.







IsCatalogInMostPopularTable: catalog: 44208, numindb: 4
Update: records affected: 1



GetName: 44208 CZ-4C DEB

Hit Count: updated at: Sun, 26 May 2019 07:31:53 GMT